QPF
0.00 0.00 0.00 0.00 0.00 0.00 0.00 0.00 0.00 0.00 0.00 0.00 0.00 0.00 0.00 0.00 0.00 0.00 0.00 0.00 0.01 0.01 0.00 0.00 0.01 0.01 0.01 0.01 0.01 0.00 0.00 0.00 0.00 0.00 0.00 0.01 0.01 0.00 0.00 0.00 0.01 0.00 0.00
0.00 0.00 0.00 0.00 0.00 0.00 0.00 0.00 0.00 0.00 0.00 0.00 0.00 0.00 0.00 0.00 0.00 0.00 0.00 0.00 0.01 0.01 0.00 0.00 0.00 0.00 0.01 0.01 0.00 0.00 0.00 0.00 0.00 0.00 0.00 0.00 0.00 0.00 0.00 0.01 0.00 0.00 0.00
0.00 0.00 0.00 0.00 0.00 0.00 0.00 0.00 0.00 0.00 0.00 0.00 0.00 0.00 0.00 0.00 0.00 0.00 0.00 0.00 0.00 0.00 0.00 0.00 0.00 0.00 0.00 0.00 0.00 0.00 0.00 0.00 0.00 0.00 0.00 0.00 0.00 0.00 0.00 0.00 0.00 0.00 0.00
0.00 0.00 0.00 0.00 0.00 0.00 0.00 0.00 0.00 0.00 0.00 0.00 0.00 0.00 0.00 0.00 0.00 0.00 0.00 0.00 0.01 0.00 0.00 0.00 0.00 0.00 0.00 0.00 0.00 0.00 0.00 0.00 0.00 0.00 0.01 0.00 0.00 0.00 0.00 0.00 0.00 0.00 0.00
0.00 0.00 0.00 0.00 0.00 0.00 0.00 0.00 0.00 0.00 0.00 0.00 0.00 0.00 0.00 0.00 0.00 0.00 0.00 0.00 0.01 0.01 0.02 0.01 0.00 0.00 0.00 0.00 0.00 0.00 0.00 0.00 0.00 0.00 0.01 0.00 0.00 0.01 0.00 0.01 0.01 0.01 0.01
0.00 0.00 0.00 0.00 0.00 0.00 0.00 0.00 0.00 0.00 0.00 0.00 0.00 0.00 0.00 0.00 0.00 0.00 0.00 0.00 0.00 0.01 0.02 0.01 0.00 0.00 0.00 0.00 0.00 0.00 0.00 0.00 0.00 0.00 0.01 0.00 0.00 0.01 0.01 0.01 0.01 0.01 0.01
0.00 0.00 0.00 0.00 0.00 0.00 0.00 0.00 0.00 0.00 0.00 0.00 0.00 0.00 0.00 0.00 0.00 0.00 0.00 0.00 0.00 0.00 0.00 0.00 0.00 0.00 0.00 0.00 0.00 0.00 0.00 0.00 0.00 0.01 0.01 0.01 0.01 0.01 0.02 0.02 0.01 0.01 0.01
0.00 0.00 0.00 0.00 0.00 0.00 0.00 0.00 0.00 0.00 0.00 0.00 0.00 0.00 0.00 0.00 0.00 0.00 0.00 0.00 0.00 0.00 0.00 0.00 0.00 0.00 0.00 0.00 0.00 0.00 0.00 0.00 0.00 0.00 0.00 0.01 0.01 0.01 0.02 0.02 0.02 0.01 0.01
0.01 0.00 0.00 0.00 0.00 0.00 0.00 0.00 0.00 0.00 0.00 0.00 0.00 0.00 0.00 0.00 0.00 0.00 0.00 0.00 0.00 0.00 0.00 0.00 0.00 0.00 0.00 0.00 0.00 0.00 0.00 0.00 0.00 0.00 0.00 0.00 0.00 0.00 0.01 0.01 0.01 0.01 0.00
0.01 0.01 0.01 0.01 0.00 0.00 0.00 0.00 0.00 0.00 0.00 0.00 0.00 0.00 0.00 0.00 0.00 0.00 0.00 0.00 0.00 0.00 0.00 0.00 0.00 0.00 0.00 0.00 0.00 0.00 0.00 0.00 0.00 0.00 0.00 0.00 0.00 0.00 0.00 0.00 0.00 0.00 0.00
0.00 0.01 0.01 0.00 0.00 0.00 0.00 0.00 0.00 0.00 0.00 0.00 0.00 0.00 0.00 0.00 0.00 0.00 0.00 0.00 0.00 0.00 0.00 0.00 0.00 0.00 0.00 0.00 0.00 0.00 0.00 0.00 0.00 0.00 0.00 0.00 0.00 0.00 0.00 0.00 0.00 0.00 0.01
0.00 0.01 0.01 0.00 0.00 0.00 0.00 0.00 0.00 0.00 0.00 0.00 0.01 0.00 0.00 0.00 0.00 0.00 0.00 0.00 0.00 0.00 0.00 0.00 0.00 0.00 0.00 0.00 0.00 0.00 0.00 0.00 0.00 0.00 0.00 0.00 0.00 0.00 0.00 0.00 0.00 0.00 0.01
0.01 0.01 0.01 0.00 0.00 0.00 0.01 0.00 0.00 0.00 0.00 0.00 0.00 0.00 0.00 0.00 0.00 0.00 0.00 0.00 0.00 0.00 0.00 0.00 0.00 0.00 0.00 0.00 0.00 0.00 0.00 0.00 0.00 0.00 0.00 0.00 0.00 0.00 0.00 0.00 0.00 0.00 0.00
0.01 0.01 0.01 0.00 0.00 0.00 0.01 0.01 0.01 0.01 0.01 0.01 0.00 0.00 0.00 0.00 0.00 0.00 0.00 0.00 0.00 0.00 0.00 0.00 0.00 0.00 0.00 0.00 0.00 0.00 0.00 0.00 0.00 0.00 0.00 0.00 0.00 0.00 0.00 0.00 0.00 0.00 0.00
0.01 0.01 0.01 0.00 0.00 0.00 0.00 0.00 0.00 0.00 0.00 0.00 0.00 0.00 0.00 0.00 0.00 0.00 0.00 0.00 0.00 0.00 0.00 0.00 0.00 0.00 0.00 0.00 0.00 0.00 0.00 0.00 0.00 0.00 0.00 0.00 0.00 0.00 0.00 0.00 0.00 0.00 0.00
0.01 0.01 0.01 0.01 0.00 0.00 0.00 0.00 0.00 0.00 0.00 0.00 0.00 0.00 0.00 0.00 0.00 0.00 0.00 0.00 0.00 0.00 0.00 0.00 0.00 0.00 0.00 0.00 0.00 0.00 0.00 0.00 0.00 0.00 0.00 0.00 0.00 0.00 0.00 0.00 0.00 0.00 0.00
0.01 0.01 0.00 0.00 0.00 0.00 0.00 0.00 0.00 0.00 0.00 0.00 0.00 0.00 0.00 0.00 0.00 0.00 0.00 0.00 0.00 0.00 0.00 0.00 0.00 0.00 0.00 0.00 0.00 0.00 0.00 0.00 0.00 0.00 0.00 0.00 0.00 0.00 0.00 0.00 0.00 0.00 0.00
0.01 0.01 0.00 0.00 0.00 0.00 0.00 0.00 0.00 0.00 0.00 0.00 0.01 0.01 0.00 0.00 0.00 0.00 0.00 0.00 0.00 0.00 0.00 0.00 0.00 0.00 0.00 0.00 0.00 0.00 0.00 0.00 0.00 0.00 0.00 0.00 0.00 0.00 0.00 0.00 0.00 0.00 0.00
0.01 0.00 0.00 0.00 0.00 0.00 0.00 0.00 0.00 0.00 0.00 0.00 0.00 0.00 0.00 0.00 0.00 0.00 0.00 0.00 0.00 0.00 0.00 0.00 0.00 0.00 0.00 0.00 0.00 0.00 0.00 0.00 0.00 0.00 0.00 0.00 0.00 0.00 0.00 0.00 0.00 0.00 0.00
0.01 0.01 0.01 0.01 0.00 0.00 0.00 0.00 0.00 0.00 0.00 0.00 0.00 0.00 0.00 0.00 0.00 0.00 0.00 0.00 0.00 0.00 0.00 0.00 0.00 0.00 0.00 0.00 0.00 0.00 0.00 0.00 0.01 0.01 0.01 0.01 0.01 0.01 0.01 0.00 0.00 0.00 0.00
0.01 0.01 0.01 0.00 0.00 0.00 0.00 0.00 0.00 0.00 0.00 0.00 0.00 0.00 0.00 0.00 0.00 0.00 0.00 0.00 0.00 0.00 0.00 0.00 0.00 0.00 0.00 0.00 0.01 0.01 0.01 0.00 0.00 0.00 0.01 0.01 0.01 0.01 0.01 0.01 0.01 0.01 0.01
0.00 0.00 0.00 0.00 0.00 0.00 0.00 0.00 0.00 0.00 0.00 0.00 0.00 0.00 0.00 0.00 0.00 0.00 0.00 0.00 0.00 0.00 0.00 0.00 0.00 0.00 0.01 0.01 0.01 0.01 0.01 0.01 0.01 0.01 0.01 0.01 0.01 0.01 0.01 0.01 0.01 0.01 0.01
0.00 0.00 0.00 0.00 0.00 0.00 0.00 0.00 0.00 0.00 0.00 0.00 0.00 0.00 0.00 0.00 0.00 0.00 0.00 0.00 0.00 0.00 0.00 0.00 0.00 0.00 0.00 0.00 0.01 0.01 0.01 0.01 0.01 0.01 0.01 0.01 0.01 0.01 0.01 0.01 0.02 0.02 0.02
0.00 0.00 0.01 0.00 0.00 0.00 0.00 0.00 0.00 0.00 0.00 0.00 0.00 0.00 0.00 0.00 0.00 0.00 0.00 0.00 0.00 0.00 0.00 0.00 0.01 0.01 0.01 0.01 0.01 0.01 0.01 0.01 0.01 0.01 0.02 0.02 0.02 0.02 0.03 0.03 0.03 0.03 0.03
0.01 0.01 0.01 0.01 0.01 0.00 0.00 0.00 0.01 0.00 0.00 0.00 0.00 0.00 0.00 0.00 0.00 0.00 0.00 0.00 0.00 0.00 0.00 0.00 0.00 0.01 0.01 0.01 0.01 0.01 0.01 0.01 0.01 0.02 0.02 0.02 0.02 0.02 0.02 0.02 0.02 0.02 0.02
0.02 0.01 0.01 0.00 0.01 0.00 0.00 0.00 0.00 0.00 0.00 0.00 0.00 0.00 0.00 0.00 0.00 0.00 0.00 0.01 0.01 0.01 0.01 0.01 0.01 0.01 0.01 0.01 0.01 0.01 0.01 0.01 0.01 0.01 0.01 0.01 0.01 0.01 0.01 0.01 0.01 0.01 0.01
MSLP
1019.30 1019.60 1019.89 1020.14 1020.33 1020.45 1020.49 1020.48 1020.43 1020.38 1020.35 1020.36 1020.42 1020.53 1020.66 1020.78 1020.88 1020.93 1020.92 1020.86 1020.78 1020.68 1020.62 1020.59 1020.63 1020.73 1020.88 1021.05 1021.22 1021.36 1021.45 1021.48 1021.46 1021.38 1021.26 1021.14 1021.02 1020.92 1020.84 1020.79 1020.76 1020.74 1020.72
1019.27 1019.62 1019.93 1020.20 1020.41 1020.54 1020.61 1020.62 1020.61 1020.59 1020.59 1020.64 1020.73 1020.87 1021.02 1021.17 1021.29 1021.36 1021.37 1021.34 1021.26 1021.18 1021.11 1021.07 1021.09 1021.16 1021.28 1021.42 1021.57 1021.69 1021.77 1021.80 1021.78 1021.70 1021.59 1021.45 1021.31 1021.18 1021.06 1020.96 1020.87 1020.80 1020.73
1019.16 1019.55 1019.91 1020.22 1020.47 1020.64 1020.75 1020.80 1020.83 1020.85 1020.89 1020.97 1021.08 1021.23 1021.39 1021.54 1021.66 1021.74 1021.77 1021.75 1021.70 1021.63 1021.57 1021.54 1021.56 1021.61 1021.71 1021.84 1021.97 1022.08 1022.15 1022.19 1022.17 1022.10 1022.00 1021.87 1021.72 1021.56 1021.41 1021.26 1021.11 1020.97 1020.83
1018.94 1019.40 1019.82 1020.18 1020.48 1020.71 1020.87 1020.99 1021.07 1021.14 1021.22 1021.32 1021.44 1021.59 1021.74 1021.87 1021.99 1022.06 1022.10 1022.09 1022.06 1022.02 1021.98 1021.97 1022.00 1022.06 1022.16 1022.27 1022.39 1022.49 1022.57 1022.60 1022.60 1022.55 1022.46 1022.34 1022.20 1022.03 1021.85 1021.66 1021.45 1021.24 1021.02
1018.65 1019.17 1019.64 1020.07 1020.43 1020.72 1020.95 1021.13 1021.28 1021.41 1021.53 1021.65 1021.78 1021.92 1022.05 1022.16 1022.25 1022.32 1022.35 1022.35 1022.34 1022.33 1022.33 1022.36 1022.41 1022.49 1022.59 1022.70 1022.81 1022.91 1022.98 1023.02 1023.02 1022.99 1022.92 1022.82 1022.69 1022.53 1022.34 1022.11 1021.86 1021.58 1021.30
1018.31 1018.88 1019.41 1019.88 1020.30 1020.65 1020.95 1021.20 1021.42 1021.60 1021.77 1021.92 1022.06 1022.19 1022.30 1022.39 1022.46 1022.51 1022.54 1022.56 1022.57 1022.60 1022.64 1022.70 1022.79 1022.89 1023.01 1023.12 1023.23 1023.31 1023.38 1023.41 1023.42 1023.40 1023.35 1023.27 1023.15 1023.00 1022.80 1022.57 1022.28 1021.97 1021.63
1017.97 1018.57 1019.13 1019.64 1020.10 1020.51 1020.86 1021.18 1021.45 1021.70 1021.91 1022.10 1022.26 1022.40 1022.50 1022.58 1022.64 1022.68 1022.71 1022.74 1022.78 1022.84 1022.93 1023.04 1023.16 1023.29 1023.42 1023.53 1023.63 1023.70 1023.75 1023.77 1023.77 1023.75 1023.71 1023.64 1023.54 1023.41 1023.22 1022.99 1022.70 1022.36 1021.99
1017.68 1018.29 1018.86 1019.38 1019.86 1020.29 1020.69 1021.06 1021.39 1021.69 1021.96 1022.19 1022.39 1022.55 1022.66 1022.75 1022.81 1022.85 1022.89 1022.94 1023.02 1023.11 1023.24 1023.38 1023.54 1023.69 1023.83 1023.95 1024.03 1024.08 1024.11 1024.10 1024.09 1024.05 1024.01 1023.95 1023.86 1023.74 1023.58 1023.36 1023.09 1022.76 1022.38
1017.46 1018.06 1018.62 1019.13 1019.61 1020.05 1020.48 1020.88 1021.26 1021.61 1021.94 1022.23 1022.47 1022.67 1022.81 1022.92 1023.00 1023.06 1023.13 1023.20 1023.30 1023.44 1023.59 1023.77 1023.95 1024.12 1024.26 1024.37 1024.44 1024.47 1024.46 1024.43 1024.38 1024.33 1024.27 1024.21 1024.14 1024.03 1023.89 1023.70 1023.45 1023.15 1022.79
1017.35 1017.92 1018.45 1018.94 1019.40 1019.84 1020.26 1020.69 1021.11 1021.51 1021.89 1022.24 1022.54 1022.79 1022.99 1023.14 1023.25 1023.34 1023.43 1023.53 1023.66 1023.82 1024.00 1024.20 1024.39 1024.57 1024.72 1024.82 1024.87 1024.87 1024.83 1024.77 1024.69 1024.62 1024.54 1024.47 1024.39 1024.30 1024.18 1024.02 1023.81 1023.54 1023.22
1017.31 1017.86 1018.36 1018.82 1019.25 1019.68 1020.11 1020.55 1021.00 1021.45 1021.88 1022.29 1022.65 1022.96 1023.21 1023.40 1023.56 1023.69 1023.80 1023.93 1024.08 1024.25 1024.45 1024.66 1024.86 1025.04 1025.18 1025.27 1025.30 1025.29 1025.23 1025.14 1025.03 1024.93 1024.84 1024.75 1024.67 1024.58 1024.48 1024.34 1024.16 1023.92 1023.64
1017.33 1017.86 1018.34 1018.78 1019.20 1019.62 1020.05 1020.50 1020.97 1021.46 1021.94 1022.40 1022.82 1023.18 1023.48 1023.73 1023.92 1024.08 1024.23 1024.37 1024.53 1024.71 1024.91 1025.11 1025.31 1025.49 1025.62 1025.71 1025.74 1025.71 1025.63 1025.53 1025.41 1025.28 1025.17 1025.07 1024.98 1024.88 1024.78 1024.66 1024.49 1024.29 1024.04
1017.36 1017.89 1018.37 1018.81 1019.23 1019.65 1020.10 1020.57 1021.06 1021.57 1022.09 1022.59 1023.05 1023.46 1023.81 1024.09 1024.32 1024.50 1024.66 1024.81 1024.97 1025.15 1025.34 1025.53 1025.73 1025.90 1026.03 1026.12 1026.15 1026.12 1026.05 1025.94 1025.81 1025.67 1025.54 1025.42 1025.31 1025.20 1025.09 1024.96 1024.80 1024.61 1024.38
1017.35 1017.92 1018.42 1018.89 1019.34 1019.79 1020.25 1020.74 1021.25 1021.79 1022.33 1022.85 1023.34 1023.78 1024.15 1024.46 1024.70 1024.90 1025.07 1025.22 1025.38 1025.54 1025.72 1025.90 1026.08 1026.25 1026.39 1026.48 1026.52 1026.50 1026.44 1026.34 1026.22 1026.07 1025.93 1025.79 1025.65 1025.52 1025.39 1025.24 1025.07 1024.87 1024.63
1017.28 1017.90 1018.47 1018.99 1019.49 1019.98 1020.47 1020.98 1021.52 1022.07 1022.61 1023.15 1023.65 1024.10 1024.48 1024.80 1025.06 1025.26 1025.43 1025.58 1025.72 1025.87 1026.03 1026.21 1026.38 1026.54 1026.68 1026.79 1026.85 1026.85 1026.81 1026.73 1026.61 1026.47 1026.31 1026.15 1025.98 1025.82 1025.65 1025.46 1025.26 1025.04 1024.78
1017.12 1017.82 1018.47 1019.06 1019.63 1020.17 1020.71 1021.25 1021.80 1022.35 1022.90 1023.44 1023.94 1024.38 1024.77 1025.09 1025.35 1025.56 1025.73 1025.87 1026.01 1026.15 1026.30 1026.46 1026.63 1026.80 1026.94 1027.06 1027.14 1027.17 1027.15 1027.08 1026.98 1026.83 1026.67 1026.48 1026.29 1026.08 1025.87 1025.64 1025.40 1025.14 1024.85
1016.88 1017.67 1018.40 1019.08 1019.71 1020.31 1020.90 1021.47 1022.03 1022.59 1023.14 1023.67 1024.16 1024.60 1024.99 1025.32 1025.58 1025.80 1025.98 1026.12 1026.26 1026.40 1026.55 1026.71 1026.88 1027.04 1027.20 1027.33 1027.42 1027.47 1027.47 1027.41 1027.31 1027.17 1026.99 1026.79 1026.56 1026.31 1026.06 1025.78 1025.50 1025.19 1024.87
1016.57 1017.43 1018.25 1019.00 1019.71 1020.37 1020.99 1021.59 1022.17 1022.74 1023.29 1023.81 1024.30 1024.75 1025.14 1025.48 1025.77 1026.00 1026.20 1026.36 1026.52 1026.67 1026.82 1026.98 1027.14 1027.31 1027.47 1027.60 1027.71 1027.77 1027.77 1027.73 1027.63 1027.49 1027.30 1027.07 1026.81 1026.54 1026.24 1025.93 1025.60 1025.26 1024.90
1016.21 1017.14 1018.01 1018.83 1019.59 1020.29 1020.96 1021.58 1022.18 1022.76 1023.31 1023.84 1024.34 1024.81 1025.22 1025.59 1025.91 1026.19 1026.42 1026.62 1026.80 1026.96 1027.13 1027.30 1027.47 1027.63 1027.79 1027.92 1028.02 1028.08 1028.09 1028.05 1027.95 1027.79 1027.59 1027.35 1027.07 1026.77 1026.44 1026.10 1025.75 1025.38 1024.99
1015.83 1016.79 1017.70 1018.55 1019.35 1020.09 1020.78 1021.43 1022.05 1022.65 1023.22 1023.77 1024.30 1024.79 1025.25 1025.67 1026.04 1026.37 1026.65 1026.89 1027.11 1027.31 1027.49 1027.67 1027.84 1028.00 1028.15 1028.27 1028.37 1028.42 1028.42 1028.37 1028.26 1028.10 1027.89 1027.64 1027.35 1027.03 1026.70 1026.34 1025.98 1025.60 1025.19
1015.46 1016.41 1017.33 1018.20 1019.01 1019.77 1020.48 1021.16 1021.80 1022.42 1023.02 1023.61 1024.18 1024.73 1025.25 1025.72 1026.16 1026.55 1026.89 1027.19 1027.44 1027.67 1027.88 1028.06 1028.24 1028.40 1028.54 1028.65 1028.73 1028.77 1028.76 1028.70 1028.59 1028.42 1028.21 1027.95 1027.66 1027.34 1027.01 1026.65 1026.29 1025.91 1025.51
1015.11 1016.04 1016.94 1017.80 1018.61 1019.38 1020.10 1020.80 1021.47 1022.12 1022.76 1023.40 1024.02 1024.63 1025.21 1025.76 1026.26 1026.71 1027.11 1027.46 1027.76 1028.02 1028.25 1028.45 1028.62 1028.78 1028.91 1029.01 1029.08 1029.11 1029.10 1029.03 1028.91 1028.75 1028.53 1028.28 1027.99 1027.68 1027.35 1027.01 1026.66 1026.29 1025.90
1014.82 1015.70 1016.57 1017.40 1018.20 1018.97 1019.70 1020.41 1021.11 1021.80 1022.49 1023.17 1023.85 1024.52 1025.16 1025.77 1026.34 1026.85 1027.30 1027.69 1028.02 1028.31 1028.55 1028.76 1028.94 1029.10 1029.23 1029.33 1029.39 1029.42 1029.41 1029.34 1029.22 1029.06 1028.85 1028.60 1028.32 1028.02 1027.70 1027.38 1027.04 1026.69 1026.32
1014.61 1015.44 1016.26 1017.06 1017.84 1018.60 1019.34 1020.07 1020.79 1021.51 1022.24 1022.97 1023.70 1024.42 1025.11 1025.77 1026.37 1026.92 1027.41 1027.83 1028.19 1028.49 1028.75 1028.97 1029.16 1029.32 1029.45 1029.56 1029.64 1029.67 1029.66 1029.61 1029.50 1029.34 1029.13 1028.89 1028.61 1028.32 1028.01 1027.69 1027.36 1027.02 1026.66
1014.50 1015.28 1016.06 1016.83 1017.59 1018.34 1019.08 1019.82 1020.56 1021.31 1022.07 1022.83 1023.59 1024.34 1025.06 1025.74 1026.37 1026.94 1027.44 1027.87 1028.24 1028.55 1028.82 1029.05 1029.25 1029.42 1029.57 1029.70 1029.79 1029.85 1029.86 1029.82 1029.72 1029.57 1029.36 1029.11 1028.84 1028.53 1028.22 1027.89 1027.56 1027.22 1026.86
1014.51 1015.25 1016.00 1016.75 1017.49 1018.23 1018.97 1019.71 1020.47 1021.23 1022.00 1022.77 1023.55 1024.31 1025.03 1025.71 1026.34 1026.91 1027.40 1027.83 1028.19 1028.50 1028.78 1029.01 1029.23 1029.42 1029.60 1029.75 1029.87 1029.96 1029.99 1029.96 1029.88 1029.73 1029.52 1029.26 1028.96 1028.63 1028.29 1027.95 1027.60 1027.25 1026.89
Thickness
5726 5726 5724 5723 5721 5720 5718 5717 5716 5715 5714 5712 5711 5711 5710 5708 5707 5705 5705 5704 5704 5703 5703 5702 5700 5699 5699 5698 5698 5697 5697 5696 5691 5688 5687 5685 5684 5683 5682 5681 5681 5681 5679
5727 5726 5724 5722 5721 5720 5718 5716 5716 5716 5714 5713 5711 5710 5709 5707 5706 5704 5702 5701 5702 5701 5701 5700 5698 5696 5696 5696 5695 5694 5693 5692 5691 5686 5685 5683 5682 5680 5679 5679 5678 5678 5677
5725 5725 5723 5722 5721 5720 5718 5716 5716 5715 5713 5712 5710 5709 5708 5706 5704 5703 5702 5701 5700 5700 5699 5698 5697 5695 5694 5693 5692 5691 5690 5689 5687 5685 5682 5680 5680 5678 5676 5676 5676 5674 5674
5724 5723 5722 5721 5720 5719 5718 5716 5715 5714 5712 5711 5710 5708 5707 5705 5704 5703 5701 5700 5699 5698 5696 5695 5694 5693 5692 5691 5689 5688 5687 5686 5684 5683 5680 5678 5676 5674 5674 5673 5673 5672 5671
5723 5722 5721 5721 5720 5718 5716 5714 5713 5712 5710 5709 5708 5707 5705 5703 5702 5702 5700 5698 5697 5695 5694 5692 5689 5687 5685 5685 5685 5685 5683 5683 5681 5679 5677 5676 5673 5671 5670 5669 5668 5668 5667
5723 5721 5720 5719 5717 5715 5714 5713 5711 5710 5709 5707 5706 5704 5702 5700 5696 5695 5696 5696 5695 5693 5691 5689 5686 5684 5680 5678 5677 5676 5676 5677 5677 5675 5673 5671 5669 5667 5665 5665 5664 5664 5662
5723 5721 5719 5718 5715 5714 5712 5710 5708 5707 5706 5704 5703 5701 5699 5696 5693 5691 5690 5693 5692 5691 5690 5688 5685 5681 5679 5679 5675 5672 5671 5668 5667 5669 5668 5666 5664 5663 5661 5660 5658 5656 5654
5724 5721 5719 5717 5714 5712 5710 5708 5707 5706 5703 5702 5700 5699 5696 5694 5690 5689 5688 5689 5689 5688 5687 5685 5683 5680 5677 5676 5674 5672 5669 5666 5663 5662 5661 5659 5657 5655 5653 5652 5651 5650 5649
5723 5721 5719 5717 5713 5711 5709 5708 5707 5704 5702 5701 5698 5696 5695 5692 5688 5686 5685 5687 5686 5685 5683 5681 5679 5677 5671 5668 5669 5668 5665 5662 5657 5654 5652 5650 5647 5646 5644 5645 5645 5644 5644
5724 5722 5720 5718 5714 5711 5709 5708 5705 5703 5700 5698 5696 5695 5694 5692 5687 5684 5682 5685 5684 5681 5679 5676 5671 5669 5666 5663 5664 5663 5660 5658 5655 5652 5648 5645 5643 5641 5637 5636 5636 5634 5634
5724 5721 5718 5716 5714 5711 5708 5705 5703 5700 5698 5696 5694 5692 5691 5689 5684 5681 5679 5682 5681 5679 5676 5673 5669 5663 5660 5657 5656 5656 5653 5651 5650 5647 5645 5642 5639 5636 5633 5629 5627 5624 5623
5722 5718 5715 5713 5711 5708 5705 5702 5700 5697 5694 5693 5691 5689 5688 5685 5682 5679 5676 5675 5675 5674 5671 5669 5664 5658 5655 5652 5650 5647 5644 5642 5642 5641 5638 5636 5633 5630 5627 5623 5619 5616 5613
5718 5714 5712 5710 5708 5706 5702 5699 5697 5694 5693 5691 5689 5687 5685 5683 5679 5675 5671 5669 5667 5666 5665 5660 5656 5652 5649 5647 5643 5640 5638 5637 5635 5633 5631 5628 5625 5622 5618 5615 5612 5608 5605
5715 5712 5709 5707 5704 5702 5699 5698 5695 5693 5691 5689 5687 5686 5684 5680 5678 5674 5670 5665 5661 5659 5657 5653 5649 5646 5643 5641 5639 5636 5633 5631 5629 5626 5624 5621 5617 5614 5610 5607 5604 5600 5598
5712 5709 5707 5704 5702 5699 5696 5694 5693 5692 5692 5689 5687 5685 5681 5678 5676 5671 5668 5665 5662 5658 5654 5650 5648 5644 5641 5638 5635 5632 5629 5626 5622 5619 5616 5613 5610 5606 5602 5598 5594 5591 5588
5709 5706 5703 5700 5697 5695 5691 5687 5683 5684 5682 5680 5680 5679 5677 5673 5669 5664 5660 5657 5653 5649 5646 5646 5643 5640 5637 5634 5631 5627 5623 5619 5616 5612 5609 5605 5602 5598 5594 5590 5586 5582 5579
5707 5703 5700 5697 5693 5691 5688 5685 5681 5675 5672 5671 5670 5669 5667 5664 5661 5657 5652 5648 5644 5640 5640 5640 5638 5635 5632 5628 5625 5621 5617 5613 5609 5605 5601 5597 5594 5590 5586 5582 5577 5573 5570
5702 5698 5695 5692 5690 5688 5685 5683 5681 5677 5672 5668 5664 5660 5658 5655 5652 5649 5644 5640 5638 5635 5635 5634 5631 5628 5625 5621 5617 5613 5609 5605 5601 5597 5593 5589 5585 5581 5577 5573 5568 5563 5560
5696 5693 5690 5688 5685 5683 5681 5678 5676 5673 5670 5666 5662 5656 5650 5647 5643 5640 5637 5637 5637 5633 5630 5627 5624 5621 5617 5614 5609 5605 5601 5597 5593 5588 5584 5579 5575 5570 5566 5562 5558 5552 5546
5689 5685 5684 5682 5679 5676 5674 5672 5670 5667 5664 5661 5657 5653 5647 5643 5641 5636 5633 5633 5631 5628 5625 5621 5617 5613 5609 5605 5600 5596 5592 5588 5584 5579 5575 5570 5565 5560 5555 5551 5547 5542 5538
5682 5678 5674 5674 5672 5670 5667 5665 5663 5660 5657 5654 5651 5647 5641 5640 5638 5634 5630 5627 5624 5621 5617 5613 5609 5604 5600 5595 5591 5587 5583 5579 5574 5570 5565 5560 5555 5550 5545 5540 5535 5530 5525
5676 5672 5669 5668 5665 5663 5661 5659 5656 5653 5650 5646 5642 5638 5631 5632 5630 5627 5623 5619 5616 5612 5608 5603 5599 5595 5590 5586 5581 5577 5573 5569 5564 5559 5554 5549 5544 5539 5534 5529 5524 5519 5513
5668 5665 5662 5660 5657 5653 5651 5650 5647 5644 5641 5638 5635 5630 5625 5623 5621 5617 5614 5610 5605 5601 5597 5592 5588 5584 5579 5574 5569 5565 5561 5556 5551 5546 5541 5537 5532 5527 5522 5518 5512 5506 5501
5659 5657 5654 5651 5648 5646 5643 5641 5638 5635 5632 5629 5626 5622 5618 5614 5611 5607 5603 5599 5594 5590 5585 5581 5576 5572 5567 5561 5557 5551 5546 5541 5536 5531 5527 5523 5518 5514 5509 5504 5499 5493 5487
5649 5647 5645 5643 5641 5638 5635 5632 5630 5626 5623 5620 5616 5613 5609 5605 5601 5596 5592 5587 5582 5578 5573 5568 5563 5558 5553 5548 5543 5538 5532 5526 5521 5516 5512 5509 5505 5500 5495 5490 5485 5479 5473
5639 5637 5636 5634 5631 5629 5626 5623 5620 5617 5613 5610 5606 5602 5598 5594 5589 5585 5580 5575 5570 5565 5560 5555 5550 5545 5539 5534 5529 5523 5517 5512 5507 5502 5497 5494 5490 5486 5481 5476 5471 5465 5459